DW2715 Weather Reports


Display with metric or nautical units.
time (UTC)temp
F
wind
direction
speed
MPH
gust
MPH
rain 1hr
in
rain 24hr
in
rain mn
in
humidity
%
barometer
mb
20260504043542 56 5 3.0 6.0 0.00 0.00 0.00 78 1016.8
20260504042040 56 26 3.0 4.0 0.00 0.00 0.00 78 1016.6
20260504041538 56 18 3.0 5.0 0.00 0.00 0.00 78 1016.5
20260504041037 56 37 3.0 5.0 0.00 0.00 0.00 78 1016.5
20260504040537 56 34 2.0 5.0 0.00 0.00 0.00 77 1016.5
20260504040036 56 17 2.0 4.0 0.00 0.00 0.00 77 1016.5
20260504035537 56 24 2.0 4.0 0.00 0.00 0.00 77 1016.5
20260504034534 57 23 0.0 3.0 0.00 0.00 0.00 77 1016.6
20260504033535 57 22 1.0 4.0 0.00 0.00 0.00 76 1016.6
20260504033034 57 22 2.0 4.0 0.00 0.00 0.00 76 1016.6
20260504032536 57 22 2.0 4.0 0.00 0.00 0.00 76 1016.5
20260504032031 57 5 2.0 3.0 0.00 0.00 0.00 77 1016.5
20260504031530 57 5 1.0 2.0 0.00 0.00 0.00 76 1016.5
20260504031030 57 5 1.0 2.0 0.00 0.00 0.00 76 1016.6
20260504030529 57 5 1.0 3.0 0.00 0.00 0.00 76 1016.6
20260504030029 58 5 1.0 3.0 0.00 0.00 0.00 76 1016.6
20260504025529 58 5 2.0 3.0 0.00 0.00 0.00 76 1016.6
20260504025030 58 5 1.0 3.0 0.00 0.00 0.00 76 1016.6
20260504024529 58 5 0.0 3.0 0.00 0.00 0.00 76 1016.7
20260504024030 58 5 0.0 0.0 0.00 0.00 0.00 76 1016.7
20260504023529 58 102 0.0 0.0 0.00 0.00 0.00 77 1016.8
20260504023029 58 102 0.0 0.0 0.00 0.00 0.00 77 1016.8
20260504022530 58 102 0.0 0.0 0.00 0.00 0.00 77 1016.8
20260504021529 58 102 0.0 0.0 0.00 0.00 0.00 77 1016.7
20260504020529 58 102 0.0 0.0 0.00 0.00 0.00 76 1016.6
20260504020032 58 102 0.0 0.0 0.00 0.00 0.00 76 1016.7
20260504015530 58 102 0.0 0.0 0.00 0.00 0.00 76 1016.6
20260504015029 58 102 0.0 0.0 0.00 0.00 0.00 76 1016.7
20260504014529 58 102 0.0 2.0 0.00 0.00 0.00 75 1016.7
20260504014030 58 102 1.0 3.0 0.00 0.00 0.00 75 1016.7
20260504013029 58 104 0.0 1.0 0.00 0.00 0.00 76 1016.7
20260504012530 58 104 0.0 0.0 0.00 0.00 0.00 76 1016.7
20260504012030 58 104 0.0 0.0 0.00 0.00 0.00 75 1016.7
20260504011531 58 104 0.0 0.0 0.00 0.00 0.00 75 1016.7
20260504011029 58 104 0.0 0.0 0.00 0.00 0.00 76 1016.7
20260504010529 58 104 0.0 1.0 0.00 0.00 0.00 75 1016.7
20260504010029 58 104 0.0 2.0 0.00 0.00 0.00 75 1016.7
20260504005530 58 104 0.0 2.0 0.00 0.00 0.00 75 1016.7
20260504005030 58 104 0.0 0.0 0.00 0.00 0.00 76 1016.8
20260504004530 58 104 0.0 0.0 0.00 0.00 0.00 76 1016.8
20260504003020 59 104 0.0 2.0 0.00 0.00 0.00 76 1016.8
20260504002514 59 104 0.0 2.0 0.00 0.00 0.00 76 1016.9
20260504002009 59 104 0.0 2.0 0.00 0.00 0.00 76 1016.9
20260504001504 59 104 1.0 3.0 0.00 0.00 0.00 76 1016.9
20260504000956 59 104 1.0 3.0 0.00 0.00 0.00 76 1017.0
20260503235944 59 98 0.0 0.0 0.00 0.00 0.00 77 1017.0
20260503235442 59 98 0.0 0.0 0.00 0.00 0.00 77 1017.1
20260503234440 59 98 0.0 2.0 0.00 0.00 0.00 76 1017.1
20260503233938 59 98 1.0 3.0 0.00 0.00 0.00 77 1017.1
20260503233439 59 98 1.0 3.0 0.00 0.00 0.00 77 1017.0
20260503232939 59 99 1.0 3.0 0.00 0.00 0.00 77 1017.1
20260503231937 59 102 2.0 3.0 0.00 0.00 0.00 76 1017.1
20260503231437 59 101 1.0 3.0 0.00 0.00 0.00 76 1017.2
20260503230435 60 20 0.0 0.0 0.00 0.00 0.00 76 1017.3
20260503225935 60 20 0.0 0.0 0.00 0.00 0.00 76 1017.3
20260503225436 60 0 0.0 0.0 0.00 0.00 0.00 76 1017.3
20260503224935 60 0 0.0 0.0 0.00 0.00 0.00 75 1017.3
20260503224434 60 0 0.0 0.0 0.00 0.00 0.00 75 1017.3
20260503223932 60 0 0.0 0.0 0.00 0.00 0.00 75 1017.3
20260503222932 60 0 0.0 2.0 0.00 0.00 0.00 75 1017.3
20260503222432 60 0 1.0 4.0 0.00 0.00 0.00 75 1017.3
20260503221932 60 0 1.0 4.0 0.00 0.00 0.00 75 1017.3
20260503221431 60 305 0.0 3.0 0.00 0.00 0.00 74 1017.2
20260503220429 60 305 0.0 0.0 0.00 0.00 0.00 74 1017.2
20260503215931 60 305 0.0 0.0 0.00 0.00 0.00 74 1017.2
20260503215429 60 305 0.0 0.0 0.00 0.00 0.00 74 1017.2
20260503214929 60 305 0.0 0.0 0.00 0.00 0.00 73 1017.1
20260503214425 60 305 0.0 0.0 0.00 0.00 0.00 73 1017.1
20260503213919 60 305 0.0 0.0 0.00 0.00 0.00 73 1017.1
20260503213415 61 305 0.0 0.0 0.00 0.00 0.00 72 1017.1
20260503212914 61 305 0.0 0.0 0.00 0.00 0.00 72 1017.2
20260503212413 61 305 0.0 1.0 0.00 0.00 0.00 72 1017.2
20260503211915 61 305 0.0 1.0 0.00 0.00 0.00 72 1017.2
20260503211411 61 196 0.0 2.0 0.00 0.00 0.00 71 1017.1
20260503210909 61 196 0.0 2.0 0.00 0.00 0.00 71 1016.9
20260503210407 61 196 1.0 3.0 0.00 0.00 0.00 70 1016.9
20260503205904 62 196 1.0 3.0 0.00 0.00 0.00 70 1017.0
20260503205403 62 195 2.0 4.0 0.00 0.00 0.00 69 1017.0
20260503204904 62 195 1.0 4.0 0.00 0.00 0.00 69 1016.9
20260503204403 62 194 1.0 4.0 0.00 0.00 0.00 69 1016.9
20260503203903 62 192 1.0 3.0 0.00 0.00 0.00 69 1016.9
20260503203404 62 192 1.0 3.0 0.00 0.00 0.00 68 1016.9
20260503202904 62 192 1.0 3.0 0.00 0.00 0.00 69 1016.9
20260503202403 62 186 0.0 3.0 0.00 0.00 0.00 68 1016.9
20260503200903 63 170 0.0 0.0 0.00 0.00 0.00 68 1016.9
20260503200403 63 170 0.0 0.0 0.00 0.00 0.00 68 1016.9
20260503195903 64 170 0.0 0.0 0.00 0.00 0.00 67 1016.9
20260503195403 64 169 0.0 0.0 0.00 0.00 0.00 67 1016.9
20260503194903 64 169 0.0 0.0 0.00 0.00 0.00 67 1016.8
20260503193903 64 169 0.0 0.0 0.00 0.00 0.00 67 1016.7
20260503193403 65 171 0.0 0.0 0.00 0.00 0.00 66 1016.7
20260503192903 65 170 0.0 0.0 0.00 0.00 0.00 66 1016.7
20260503192403 65 167 0.0 2.0 0.00 0.00 0.00 66 1016.7
20260503191903 65 165 1.0 5.0 0.00 0.00 0.00 66 1016.8
20260503191403 65 162 2.0 5.0 0.00 0.00 0.00 65 1016.7
20260503190403 66 174 0.0 0.0 0.00 0.00 0.00 65 1016.7
20260503185903 66 169 0.0 0.0 0.00 0.00 0.00 64 1016.6
20260503185404 66 169 0.0 0.0 0.00 0.00 0.00 64 1016.5
20260503184903 67 190 0.0 0.0 0.00 0.00 0.00 63 1016.4
20260503184403 67 129 0.0 0.0 0.00 0.00 0.00 63 1016.4
20260503183903 67 154 0.0 0.0 0.00 0.00 0.00 62 1016.4
20260503182902 68 167 0.0 0.0 0.00 0.00 0.00 61 1016.3
20260503181904 68 159 1.0 6.0 0.00 0.00 0.00 59 1016.3
20260503181402 69 132 1.0 6.0 0.00 0.00 0.00 58 1016.3
20260503180903 69 150 1.0 6.0 0.00 0.00 0.00 57 1016.3
20260503180402 69 153 1.0 7.0 0.00 0.00 0.00 56 1016.3
20260503175903 70 148 2.0 7.0 0.00 0.00 0.00 55 1016.3
20260503175403 70 178 2.0 9.0 0.00 0.00 0.00 54 1016.2
20260503174904 70 168 2.0 9.0 0.00 0.00 0.00 53 1016.2
20260503174402 71 134 3.0 9.0 0.00 0.00 0.00 52 1016.2
20260503173856 71 131 2.0 8.0 0.00 0.00 0.00 52 1016.0
20260503173349 72 169 1.0 7.0 0.00 0.00 0.00 52 1016.0
20260503172843 72 117 1.0 7.0 0.00 0.00 0.00 51 1016.1
20260503172337 73 162 2.0 7.0 0.00 0.00 0.00 50 1016.0
20260503171833 73 146 2.0 7.0 0.00 0.00 0.00 50 1016.0
20260503171335 73 147 3.0 10.0 0.00 0.00 0.00 48 1016.0
20260503170333 73 118 4.0 11.0 0.00 0.00 0.00 47 1016.0
20260503150832 75 127 5.0 12.0 0.00 0.00 0.00 45 1016.8
20260503150330 75 159 5.0 12.0 0.00 0.00 0.00 43 1016.8
20260503131320 78 119 4.0 11.0 0.00 0.00 0.00 38 1017.6
20260503110730 76 229 2.0 9.0 0.00 0.00 0.00 31 1018.6
20260503110230 76 274 4.0 9.0 0.00 0.00 0.00 32 1018.6
20260503100230 76 202 2.0 7.0 0.00 0.00 0.00 35 1019.1
20260503090231 71 238 1.0 6.0 0.00 0.00 0.00 41 1019.4
20260503081231 67 5 1.0 3.0 0.00 0.00 0.00 50 1019.6
20260503080731 67 5 0.0 3.0 0.00 0.00 0.00 51 1019.6
20260503080229 66 351 0.0 3.0 0.00 0.00 0.00 55 1019.6
20260503072232 62 300 0.0 0.0 0.00 0.00 0.00 63 1019.8
20260503071730 62 300 0.0 0.0 0.00 0.00 0.00 63 1019.8
20260503071230 62 292 0.0 0.0 0.00 0.00 0.00 63 1019.9
20260503070731 62 315 0.0 0.0 0.00 0.00 0.00 63 1019.9
20260503070231 61 11 0.0 0.0 0.00 0.00 0.00 64 1019.8
20260503060226 57 313 0.0 0.0 0.00 0.00 0.00 71 1019.6
20260503054722 56 308 0.0 0.0 0.00 0.00 0.00 72 1019.7
20260503054220 56 306 0.0 0.0 0.00 0.00 0.00 73 1019.7
20260503053718 56 302 0.0 0.0 0.00 0.00 0.00 73 1019.7
20260503052719 55 226 0.0 0.0 0.00 0.00 0.00 74 1019.6
20260503052218 54 225 0.0 0.0 0.00 0.00 0.00 75 1019.6
20260503051717 54 223 0.0 0.0 0.00 0.00 0.00 75 1019.6
20260503051217 53 223 0.0 0.0 0.00 0.00 0.00 75 1019.7
20260503050216 52 220 0.0 0.0 0.00 0.00 0.00 77 1019.6
20260503045714 52 220 0.0 0.0 0.00 0.00 0.00 77 1019.6
20260503045214 51 220 0.0 0.0 0.00 0.00 0.00 78 1019.6
20260503044717 51 220 0.0 0.0 0.00 0.00 0.00 78 1019.6
20260503044214 51 220 0.0 0.0 0.00 0.00 0.00 78 1019.6